EW6058 Weather Reports


Display with metric or nautical units.
time (UTC)temp
F
wind
direction
speed
MPH
gust
MPH
rain 1hr
in
rain 24hr
in
rain mn
in
humidity
%
barometer
mb
20260503032507 48 312 0.0 1.0 0.09 0.36 0.36 95 1010.0
20260503032004 48 312 0.0 2.0 0.08 0.35 0.35 95 1010.1
20260503031511 48 312 0.0 2.0 0.09 0.35 0.35 95 1010.2
20260503031011 48 312 0.0 2.0 0.09 0.34 0.34 95 1010.1
20260503030504 48 312 0.0 2.0 0.08 0.33 0.33 95 1009.9
20260503030019 48 312 0.0 2.0 0.10 0.33 0.33 95 1010.0
20260503025508 48 312 0.0 2.0 0.09 0.31 0.31 95 1010.2
20260503025011 48 312 0.0 2.0 0.10 0.30 0.30 95 1010.1
20260503024518 48 312 0.0 2.0 0.10 0.29 0.29 95 1010.1
20260503024011 48 312 0.0 2.0 0.10 0.28 0.28 95 1010.1
20260503023508 48 312 0.0 2.0 0.11 0.28 0.28 95 1010.3
20260503023004 48 312 0.0 2.0 0.11 0.27 0.27 95 1010.3
20260503022508 48 312 0.0 0.0 0.13 0.27 0.27 95 1010.6
20260503022002 48 312 0.0 0.0 0.14 0.27 0.27 95 1010.8
20260503021511 48 312 0.0 0.0 0.14 0.26 0.26 95 1010.8
20260503021004 48 312 0.0 0.0 0.14 0.25 0.25 94 1010.8
20260503020504 48 312 0.0 1.0 0.15 0.25 0.25 94 1010.9
20260503020014 48 312 0.0 1.0 0.13 0.23 0.23 94 1011.0
20260503015507 48 312 0.0 1.0 0.13 0.22 0.22 94 1011.1
20260503015010 48 312 0.0 0.0 0.12 0.20 0.20 94 1011.1
20260503014536 48 312 0.0 0.0 0.11 0.19 0.19 94 1011.1
20260503014007 48 312 0.0 0.0 0.10 0.18 0.18 94 1011.0
20260503013509 48 312 0.0 0.0 0.10 0.17 0.17 94 1011.1
20260503013026 48 312 0.0 0.0 0.10 0.16 0.16 94 1011.1
20260503012508 49 312 0.0 0.0 0.11 0.14 0.14 94 1011.1
20260503012009 49 312 0.0 0.0 0.10 0.13 0.13 94 1011.1
20260503011507 49 312 0.0 0.0 0.09 0.12 0.12 94 1011.2
20260503011004 49 312 0.0 0.0 0.08 0.11 0.11 94 1011.2
20260503010506 49 312 0.0 2.0 0.08 0.10 0.10 94 1011.2
20260503010014 49 312 0.0 2.0 0.08 0.10 0.10 94 1011.1
20260503005507 49 312 0.0 1.0 0.07 0.09 0.09 93 1011.2
20260503005007 49 312 0.0 0.0 0.06 0.08 0.08 93 1011.2
20260503004517 49 312 0.0 0.0 0.07 0.08 0.08 93 1011.2
20260503004010 49 312 0.0 2.0 0.07 0.08 0.08 93 1011.1
20260503003508 49 312 0.0 2.0 0.06 0.07 0.07 93 1011.2
20260503003021 49 312 0.0 1.0 0.05 0.06 0.06 93 1011.4
20260503002510 49 312 0.0 1.0 0.02 0.03 0.03 93 1011.4
20260503002014 49 312 0.0 0.0 0.03 0.03 0.03 93 1011.2
20260503001524 49 312 0.0 0.0 0.03 0.03 0.03 92 1011.2
20260503001008 49 312 0.0 0.0 0.03 0.03 0.03 92 1011.1
20260503000511 49 312 0.0 0.0 0.02 0.02 0.02 92 1011.1
20260503000014 49 312 0.0 0.0 0.02 0.02 0.02 91 1011.2
20260502235505 49 312 0.0 0.0 0.02 0.02 0.02 91 1011.2
20260502235004 49 312 0.0 0.0 0.02 0.02 0.02 91 1011.2
20260502234514 49 312 0.0 0.0 0.01 0.01 0.01 91 1011.0
20260502234007 49 312 0.0 2.0 0.01 0.01 0.01 90 1010.9
20260502233507 49 312 0.0 2.0 0.01 0.01 0.01 90 1011.0
20260502233019 50 312 0.0 2.0 0.01 0.01 0.01 89 1011.1
20260502232505 50 312 0.0 2.0 0.01 0.01 0.01 88 1011.1
20260502232010 50 312 0.0 2.0 0.00 0.00 0.00 88 1011.2
20260502231529 50 205 0.0 2.0 0.00 0.00 0.00 86 1011.2
20260502231007 51 205 0.0 2.0 0.00 0.00 0.00 85 1011.0
20260502230510 51 205 0.0 2.0 0.00 0.00 0.00 84 1011.2
20260502230024 51 205 0.0 2.0 0.00 0.00 0.00 82 1011.1
20260502225510 51 205 0.0 2.0 0.00 0.00 0.00 81 1011.0
20260502225011 51 205 0.0 2.0 0.00 0.00 0.00 81 1011.0
20260502224513 51 212 0.0 2.0 0.00 0.00 0.00 81 1011.0
20260502224004 51 197 0.0 2.0 0.00 0.00 0.00 81 1010.9
20260502223506 51 191 0.0 2.0 0.00 0.00 0.00 80 1010.8
20260502223017 51 184 0.0 2.0 0.00 0.00 0.00 80 1010.8
20260502222508 51 172 0.0 2.0 0.00 0.00 0.00 80 1010.9
20260502222011 51 203 0.0 2.0 0.00 0.00 0.00 79 1011.0
20260502221521 52 266 0.0 2.0 0.00 0.00 0.00 78 1011.0
20260502221010 52 267 0.0 2.0 0.00 0.00 0.00 78 1011.0
20260502220512 52 270 0.0 2.0 0.00 0.00 0.00 78 1011.0
20260502220033 52 317 0.0 2.0 0.00 0.00 0.00 77 1010.9
20260502215510 52 172 0.0 2.0 0.00 0.00 0.00 77 1010.9
20260502215009 53 173 0.0 2.0 0.00 0.00 0.00 77 1011.0
20260502214525 53 172 0.0 2.0 0.00 0.00 0.00 77 1011.0
20260502214010 53 276 0.0 2.0 0.00 0.00 0.00 77 1011.1
20260502213513 53 222 0.0 2.0 0.00 0.00 0.00 77 1011.0
20260502213025 53 181 0.0 2.0 0.00 0.00 0.00 77 1010.9
20260502212508 53 194 0.0 2.0 0.00 0.00 0.00 77 1010.9
20260502212008 53 113 0.0 2.0 0.00 0.00 0.00 77 1010.9
20260502211533 53 16 0.0 2.0 0.00 0.00 0.00 77 1011.1
20260502211012 53 195 0.0 2.0 0.00 0.00 0.00 77 1011.1
20260502210507 53 195 0.0 2.0 0.00 0.00 0.00 76 1011.1
20260502210024 53 186 0.0 2.0 0.00 0.00 0.00 76 1011.1
20260502205510 53 170 0.0 2.0 0.00 0.00 0.00 75 1011.2
20260502205011 53 162 0.0 2.0 0.00 0.00 0.00 75 1011.3
20260502204526 53 172 0.0 2.0 0.00 0.00 0.00 75 1011.3
20260502204009 53 268 0.0 2.0 0.00 0.00 0.00 74 1011.3
20260502203509 54 134 0.0 2.0 0.00 0.00 0.00 74 1011.3
20260502203026 54 163 0.0 3.0 0.00 0.00 0.00 73 1011.3
20260502202510 54 314 0.0 3.0 0.00 0.00 0.00 73 1011.4
20260502202011 54 231 0.0 4.0 0.00 0.00 0.00 73 1011.4
20260502201525 54 222 0.0 4.0 0.00 0.00 0.00 72 1011.4
20260502201007 54 236 0.0 2.0 0.00 0.00 0.00 72 1011.6
20260502200505 54 175 0.0 2.0 0.00 0.00 0.00 71 1011.5
20260502200022 54 167 0.0 2.0 0.00 0.00 0.00 70 1011.7
20260502195503 55 100 1.0 2.0 0.00 0.00 0.00 69 1011.7
20260502195005 55 175 0.0 2.0 0.00 0.00 0.00 67 1011.7
20260502194504 55 163 1.0 2.0 0.00 0.00 0.00 67 1011.6
20260502194003 54 141 0.0 2.0 0.00 0.00 0.00 67 1011.7
20260502193504 55 190 0.0 2.0 0.00 0.00 0.00 68 1011.7
20260502193013 54 190 0.0 2.0 0.00 0.00 0.00 69 1011.8
20260502192505 55 124 0.0 2.0 0.00 0.00 0.00 70 1012.0
20260502192005 55 158 0.0 3.0 0.00 0.00 0.00 70 1011.9
20260502191521 55 201 1.0 3.0 0.00 0.00 0.00 70 1011.9
20260502191007 54 279 0.0 3.0 0.00 0.00 0.00 69 1011.9
20260502190508 55 162 0.0 3.0 0.00 0.00 0.00 68 1012.0
20260502190017 55 203 1.0 3.0 0.00 0.00 0.00 68 1012.1
20260502185509 55 128 0.0 2.0 0.00 0.00 0.00 69 1012.1
20260502185008 55 151 1.0 2.0 0.00 0.00 0.00 69 1012.2
20260502184522 55 171 0.0 2.0 0.00 0.00 0.00 69 1012.3
20260502184003 55 165 1.0 2.0 0.00 0.00 0.00 69 1012.4
20260502183503 55 215 0.0 2.0 0.00 0.00 0.00 70 1012.4
20260502183006 55 129 0.0 2.0 0.00 0.00 0.00 71 1012.3
20260502182504 55 113 0.0 2.0 0.00 0.00 0.00 70 1012.5
20260502182011 55 165 1.0 2.0 0.00 0.00 0.00 70 1012.6
20260502181509 55 186 0.0 3.0 0.00 0.00 0.00 71 1012.7
20260502181005 55 24 1.0 3.0 0.00 0.00 0.00 70 1012.7
20260502180507 56 162 1.0 3.0 0.00 0.00 0.00 70 1012.7
20260502170511 57 179 1.0 2.0 0.00 0.00 0.00 53 1012.4
20260502164007 58 167 0.0 2.0 0.00 0.00 0.00 54 1012.3
20260502163506 58 149 1.0 2.0 0.00 0.00 0.00 54 1012.4
20260502163032 58 110 0.0 2.0 0.00 0.00 0.00 56 1012.4
20260502162507 58 27 1.0 2.0 0.00 0.00 0.00 56 1012.4
20260502162012 59 174 1.0 2.0 0.00 0.00 0.00 55 1012.5
20260502161524 59 219 1.0 2.0 0.00 0.00 0.00 59 1012.7
20260502161010 58 357 1.0 2.0 0.00 0.00 0.00 61 1012.8
20260502160505 58 135 0.0 2.0 0.00 0.00 0.00 60 1012.8
20260502152011 61 174 1.0 3.0 0.00 0.00 0.00 56 1013.0
20260502151524 60 172 1.0 3.0 0.00 0.00 0.00 59 1013.1
20260502151015 60 143 0.0 3.0 0.00 0.00 0.00 58 1013.1
20260502150511 59 177 1.0 2.0 0.00 0.00 0.00 57 1013.1
20260502130509 54 161 1.0 2.0 0.00 0.00 0.00 70 1013.5
20260502123512 53 166 1.0 2.0 0.00 0.00 0.00 74 1013.5
20260502123025 53 172 0.0 2.0 0.00 0.00 0.00 74 1013.5
20260502122508 53 153 1.0 2.0 0.00 0.00 0.00 74 1013.4
20260502122008 53 221 0.0 2.0 0.00 0.00 0.00 76 1013.4
20260502121520 52 172 0.0 2.0 0.00 0.00 0.00 74 1013.3
20260502121007 53 158 0.0 2.0 0.00 0.00 0.00 74 1013.4
20260502120508 53 127 0.0 2.0 0.00 0.00 0.00 74 1013.3
20260502115512 52 131 1.0 2.0 0.00 0.00 0.00 77 1013.2
20260502115010 51 176 0.0 2.0 0.00 0.00 0.00 78 1013.2
20260502114525 51 162 0.0 2.0 0.00 0.00 0.00 78 1013.2
20260502114008 50 142 1.0 2.0 0.00 0.00 0.00 80 1013.2
20260502113511 49 144 0.0 2.0 0.00 0.00 0.00 83 1013.2
20260502113028 48 174 0.0 2.0 0.00 0.00 0.00 86 1013.2
20260502112509 48 193 0.0 2.0 0.00 0.00 0.00 87 1013.3
20260502112011 47 207 0.0 2.0 0.00 0.00 0.00 90 1013.1
20260502111526 46 207 0.0 2.0 0.00 0.00 0.00 92 1013.0
20260502111008 46 207 0.0 2.0 0.00 0.00 0.00 94 1013.0
20260502110508 45 207 0.0 2.0 0.00 0.00 0.00 95 1013.1
20260502110021 44 207 0.0 2.0 0.00 0.00 0.00 96 1013.0
20260502105503 43 207 0.0 2.0 0.00 0.00 0.00 96 1013.1
20260502105003 43 207 0.0 2.0 0.00 0.00 0.00 95 1013.0
20260502104513 42 207 0.0 2.0 0.00 0.00 0.00 95 1012.9
20260502104002 41 207 0.0 2.0 0.00 0.00 0.00 95 1013.0
20260502103503 41 207 0.0 2.0 0.00 0.00 0.00 95 1013.0
20260502103007 40 207 0.0 2.0 0.00 0.00 0.00 94 1013.0
20260502102507 40 207 0.0 0.0 0.00 0.00 0.00 93 1013.0
20260502102007 40 207 0.0 0.0 0.00 0.00 0.00 93 1013.0
20260502101513 40 207 0.0 0.0 0.00 0.00 0.00 93 1013.1
20260502101007 40 207 0.0 0.0 0.00 0.00 0.00 93 1013.1
20260502100506 39 207 0.0 2.0 0.00 0.00 0.00 93 1013.1
20260502091515 40 207 0.0 1.0 0.00 0.00 0.00 90 1012.5
20260502091005 41 207 0.0 2.0 0.00 0.00 0.00 90 1012.4
20260502090504 41 207 0.0 2.0 0.00 0.00 0.00 91 1012.4
20260502071014 46 207 0.0 2.0 0.00 0.00 0.00 85 1012.6
20260502070510 46 207 0.0 2.0 0.00 0.00 0.00 84 1012.4
20260502070009 46 207 0.0 2.0 0.00 0.00 0.00 84 1012.5
20260502065505 47 207 0.0 2.0 0.00 0.00 0.00 83 1012.5
20260502065005 47 207 0.0 2.0 0.00 0.00 0.00 83 1012.5
20260502064514 47 207 0.0 2.0 0.00 0.00 0.00 83 1012.5
20260502064007 47 207 0.0 2.0 0.00 0.00 0.00 83 1012.6
20260502063507 48 207 0.0 2.0 0.00 0.00 0.00 83 1012.7
20260502063019 48 207 0.0 2.0 0.00 0.00 0.00 83 1012.7
20260502062508 48 176 0.0 2.0 0.00 0.00 0.00 83 1012.6
20260502062010 48 176 0.0 2.0 0.00 0.00 0.00 83 1012.4
20260502061523 48 179 0.0 2.0 0.00 0.00 0.00 83 1012.4
20260502061008 48 180 0.0 2.0 0.00 0.00 0.00 83 1012.4
20260502060511 48 198 0.0 2.0 0.00 0.00 0.00 83 1012.3
20260502060024 48 200 0.0 2.0 0.00 0.00 0.00 83 1012.4
20260502055508 48 181 0.0 2.0 0.00 0.00 0.00 83 1012.6
20260502055015 48 209 1.0 2.0 0.00 0.00 0.00 83 1012.7
20260502054514 48 176 0.0 2.0 0.00 0.00 0.00 83 1012.8
20260502054005 48 174 0.0 2.0 0.00 0.00 0.00 82 1012.8
20260502053504 48 174 0.0 1.0 0.00 0.00 0.00 82 1012.8
20260502053016 48 171 0.0 2.0 0.00 0.00 0.00 82 1012.7
20260502052507 48 179 1.0 2.0 0.00 0.00 0.00 82 1012.7
20260502052006 48 182 0.0 2.0 0.00 0.00 0.00 82 1012.7
20260502051533 48 183 0.0 2.0 0.00 0.00 0.00 82 1012.6
20260502051011 48 175 0.0 2.0 0.00 0.00 0.00 82 1012.6
20260502050509 48 187 0.0 2.0 0.00 0.00 0.00 82 1012.7
20260502050025 48 190 1.0 2.0 0.00 0.00 0.00 83 1012.7
20260502045508 48 195 1.0 1.0 0.00 0.00 0.00 83 1012.7
20260502045011 48 186 1.0 2.0 0.00 0.00 0.00 82 1012.7
20260502044524 48 203 0.0 2.0 0.00 0.00 0.00 82 1012.7
20260502044010 48 203 0.0 2.0 0.00 0.00 0.00 82 1012.6
20260502043508 48 203 0.0 2.0 0.00 0.00 0.00 82 1012.6
20260502043010 48 203 0.0 2.0 0.00 0.00 0.00 82 1012.7
20260502042507 48 203 0.0 2.0 0.00 0.00 0.00 82 1012.7
20260502042008 48 203 0.0 2.0 0.00 0.00 0.00 82 1012.8
20260502041518 48 193 0.0 2.0 0.00 0.00 0.00 82 1012.7
20260502041007 48 195 0.0 2.0 0.00 0.00 0.00 82 1012.8
20260502040509 48 195 0.0 2.0 0.00 0.00 0.00 83 1012.8
20260502040022 48 195 0.0 2.0 0.00 0.00 0.00 82 1012.9
20260502035508 48 180 0.0 2.0 0.00 0.00 0.00 82 1013.0
20260502035010 48 180 0.0 2.0 0.00 0.00 0.00 82 1012.9
20260502034536 48 184 0.0 2.0 0.00 0.00 0.00 82 1012.9
20260502034008 48 182 0.0 2.0 0.00 0.00 0.00 82 1012.9
20260502033514 48 188 0.0 2.0 0.00 0.00 0.00 82 1012.9
20260502033035 48 187 0.0 2.0 0.00 0.00 0.00 82 1012.9